GW1622 Weather Reports


Display with metric or nautical units.
time (UTC)temp
F
wind
direction
speed
MPH
gust
MPH
rain 1hr
in
rain 24hr
in
rain mn
in
humidity
%
barometer
mb
20260509215014 69 45 1.0 7.0 0.00 0.00 0.00 72 1013.3
20260509214538 67 108 2.0 7.0 0.00 0.00 0.00 74 1013.2
20260509214015 67 0 2.0 7.0 0.00 0.00 0.00 76 1013.3
20260509213515 66 118 3.0 9.0 0.00 0.00 0.00 74 1013.5
20260509213040 69 70 2.0 9.0 0.00 0.00 0.00 72 1013.6
20260509212513 69 69 3.0 9.0 0.00 0.00 0.00 71 1013.6
20260509212018 68 51 2.0 6.0 0.00 0.00 0.00 73 1013.7
20260509211532 69 36 2.0 9.0 0.00 0.00 0.00 73 1013.7
20260509211013 67 39 2.0 9.0 0.00 0.00 0.00 75 1013.8
20260509210512 68 61 1.0 6.0 0.00 0.00 0.00 73 1013.8
20260509210034 68 40 2.0 5.0 0.00 0.00 0.00 73 1013.7
20260509205516 68 99 1.0 6.0 0.00 0.00 0.00 73 1013.8
20260509205014 69 43 2.0 6.0 0.00 0.00 0.00 71 1013.6
20260509204541 69 77 1.0 6.0 0.00 0.00 0.00 71 1013.8
20260509204016 69 113 1.0 6.0 0.00 0.00 0.00 70 1013.8
20260509203516 71 103 1.0 6.0 0.00 0.00 0.00 70 1013.9
20260509203036 70 96 2.0 8.0 0.00 0.00 0.00 70 1013.9
20260509202513 71 174 2.0 10.0 0.00 0.00 0.00 70 1013.9
20260509202014 70 13 1.0 10.0 0.00 0.00 0.00 70 1014.0
20260509201531 69 69 2.0 9.0 0.00 0.00 0.00 70 1014.0
20260509201013 68 57 2.0 10.0 0.00 0.00 0.00 74 1014.0
20260509200518 69 89 2.0 10.0 0.00 0.00 0.00 73 1014.1
20260509200039 68 52 2.0 10.0 0.00 0.00 0.00 74 1014.0
20260509195517 69 84 2.0 6.0 0.00 0.00 0.00 72 1013.9
20260509195019 69 90 2.0 5.0 0.00 0.00 0.00 73 1013.9
20260509194540 68 141 2.0 6.0 0.00 0.00 0.00 74 1013.9
20260509194014 68 103 2.0 6.0 0.00 0.00 0.00 74 1013.8
20260509193514 68 119 2.0 7.0 0.00 0.00 0.00 74 1013.9
20260509193041 68 120 2.0 7.0 0.00 0.00 0.00 73 1013.9
20260509192516 68 46 2.0 5.0 0.00 0.00 0.00 74 1013.8
20260509192018 68 94 2.0 6.0 0.00 0.00 0.00 74 1013.9
20260509191532 68 55 2.0 7.0 0.00 0.00 0.00 74 1013.9
20260509191015 67 87 2.0 7.0 0.00 0.00 0.00 76 1014.0
20260509190513 68 66 3.0 10.0 0.00 0.00 0.00 75 1013.9
20260509190030 68 65 2.0 10.0 0.00 0.00 0.00 75 1013.9
20260509185515 67 95 3.0 10.0 0.00 0.00 0.00 76 1013.9
20260509185018 68 86 2.0 8.0 0.00 0.00 0.00 76 1013.9
20260509184536 67 67 2.0 8.0 0.00 0.00 0.00 77 1013.8
20260509184013 67 87 3.0 8.0 0.00 0.00 0.00 76 1013.9
20260509183513 67 100 3.0 8.0 0.00 0.00 0.00 76 1014.0
20260509183035 66 58 2.0 8.0 0.00 0.00 0.00 78 1014.1
20260509182513 67 148 2.0 9.0 0.00 0.00 0.00 77 1014.2
20260509182014 66 46 2.0 9.0 0.00 0.00 0.00 80 1014.3
20260509181535 67 71 1.0 7.0 0.00 0.00 0.00 78 1014.2
20260509181015 67 107 1.0 5.0 0.00 0.00 0.00 77 1014.3
20260509180515 68 328 1.0 7.0 0.00 0.00 0.00 78 1014.3
20260509180032 67 0 1.0 7.0 0.00 0.00 0.00 78 1014.3
20260509175515 66 132 3.0 7.0 0.00 0.00 0.00 77 1014.4
20260509175016 67 78 2.0 6.0 0.00 0.00 0.00 81 1014.3
20260509174532 68 63 1.0 4.0 0.00 0.00 0.00 77 1014.3
20260509174013 67 19 1.0 8.0 0.00 0.00 0.00 82 1014.4
20260509173513 65 175 2.0 8.0 0.00 0.00 0.00 81 1014.5
20260509173030 65 51 2.0 5.0 0.00 0.00 0.00 82 1014.5
20260509172514 65 323 1.0 7.0 0.00 0.00 0.00 82 1014.5
20260509172016 65 109 0.0 7.0 0.00 0.00 0.00 82 1014.4
20260509171536 65 171 2.0 7.0 0.00 0.00 0.00 81 1014.3
20260509171013 65 33 1.0 5.0 0.00 0.00 0.00 83 1014.3
20260509170514 64 74 1.0 4.0 0.00 0.00 0.00 83 1014.3
20260509170035 64 175 1.0 4.0 0.00 0.00 0.00 83 1014.4
20260509165513 63 61 1.0 5.0 0.00 0.00 0.00 84 1014.4
20260509165014 63 46 1.0 5.0 0.00 0.00 0.00 85 1014.4
20260509164534 62 83 1.0 4.0 0.00 0.00 0.00 85 1014.5
20260509164014 62 0 1.0 4.0 0.00 0.00 0.00 86 1014.5
20260509163516 62 97 1.0 4.0 0.00 0.00 0.00 86 1014.6
20260509163031 62 140 1.0 4.0 0.00 0.00 0.00 86 1014.6
20260509162517 63 153 0.0 2.0 0.00 0.00 0.00 86 1014.6
20260509162016 62 0 0.0 3.0 0.00 0.00 0.00 87 1014.6
20260509161532 62 238 1.0 3.0 0.00 0.00 0.00 87 1014.6
20260509161015 62 132 1.0 2.0 0.00 0.00 0.00 87 1014.6
20260509160515 61 0 1.0 3.0 0.00 0.00 0.00 87 1014.5
20260509160030 62 0 0.0 3.0 0.00 0.00 0.00 88 1014.6
20260509155514 61 101 0.0 3.0 0.00 0.00 0.00 88 1014.6
20260509155015 61 84 1.0 3.0 0.00 0.00 0.00 88 1014.6
20260509154534 61 36 0.0 4.0 0.00 0.00 0.00 89 1014.5
20260509154015 61 160 1.0 5.0 0.00 0.00 0.00 89 1014.6
20260509153518 61 0 1.0 5.0 0.00 0.00 0.00 89 1014.5
20260509153033 61 115 0.0 2.0 0.00 0.00 0.00 89 1014.4
20260509152515 61 0 0.0 2.0 0.00 0.00 0.00 89 1014.6
20260509152015 61 126 0.0 3.0 0.00 0.00 0.00 90 1014.5
20260509151533 61 158 0.0 3.0 0.00 0.00 0.00 90 1014.5
20260509151015 61 157 1.0 3.0 0.00 0.00 0.00 90 1014.5
20260509150514 61 155 0.0 3.0 0.00 0.00 0.00 90 1014.5
20260509150031 61 0 0.0 2.0 0.00 0.00 0.00 91 1014.5
20260509145514 60 0 0.0 2.0 0.00 0.00 0.00 91 1014.6
20260509145015 60 0 0.0 3.0 0.00 0.00 0.00 91 1014.5
20260509144530 60 128 1.0 3.0 0.00 0.00 0.00 91 1014.4
20260509144012 60 136 0.0 2.0 0.00 0.00 0.00 91 1014.4
20260509143513 60 0 0.0 2.0 0.00 0.00 0.00 91 1014.4
20260509143038 60 133 0.0 2.0 0.00 0.00 0.00 91 1014.5
20260509142514 60 0 0.0 2.0 0.00 0.00 0.00 91 1014.4
20260509142014 60 0 0.0 1.0 0.00 0.00 0.00 92 1014.5
20260509141532 60 0 0.0 0.0 0.00 0.00 0.00 92 1014.4
20260509141015 60 0 0.0 0.0 0.00 0.00 0.00 92 1014.4
20260509140516 60 0 0.0 1.0 0.00 0.00 0.00 92 1014.2
20260509140049 60 0 0.0 1.0 0.00 0.00 0.00 92 1014.2
20260509135514 60 0 0.0 1.0 0.00 0.00 0.00 92 1014.3
20260509135017 60 101 0.0 1.0 0.00 0.00 0.00 92 1014.3
20260509134534 60 0 0.0 1.0 0.00 0.00 0.00 92 1014.4
20260509134016 60 0 0.0 3.0 0.00 0.00 0.00 92 1014.2
20260509133515 60 101 0.0 3.0 0.00 0.00 0.00 92 1014.3
20260509133034 60 0 0.0 2.0 0.00 0.00 0.00 91 1014.2
20260509132514 60 130 0.0 2.0 0.00 0.00 0.00 92 1014.1
20260509132015 60 0 0.0 2.0 0.00 0.00 0.00 91 1014.1
20260509131540 60 0 0.0 2.0 0.00 0.00 0.00 91 1014.1
20260509131014 60 130 0.0 2.0 0.00 0.00 0.00 92 1014.0
20260509130515 60 130 0.0 2.0 0.00 0.00 0.00 92 1014.0
20260509130034 60 0 0.0 1.0 0.00 0.00 0.00 91 1014.1
20260509125515 60 0 0.0 2.0 0.00 0.00 0.00 91 1014.1
20260509125015 60 0 0.0 2.0 0.00 0.00 0.00 91 1014.0
20260509124536 60 0 0.0 2.0 0.00 0.00 0.00 91 1013.9
20260509124015 60 0 0.0 2.0 0.00 0.00 0.00 91 1013.9
20260509123513 60 0 0.0 2.0 0.00 0.00 0.00 91 1013.9
20260509123032 60 0 0.0 2.0 0.00 0.00 0.00 91 1013.9
20260509122512 60 0 0.0 2.0 0.00 0.00 0.00 91 1013.9
20260509122013 60 0 0.0 2.0 0.00 0.00 0.00 91 1013.9
20260509121544 60 0 0.0 1.0 0.00 0.00 0.00 91 1013.9
20260509121019 60 0 0.0 0.0 0.00 0.00 0.00 91 1013.9
20260509120515 60 0 0.0 0.0 0.00 0.00 0.00 91 1013.8
20260509120036 60 0 0.0 2.0 0.00 0.00 0.00 91 1013.9
20260509115514 60 0 0.0 2.0 0.00 0.00 0.00 91 1013.9
20260509115014 60 0 1.0 2.0 0.00 0.00 0.00 91 1013.8
20260509114534 60 0 0.0 1.0 0.00 0.00 0.00 91 1013.8
20260509114013 60 0 0.0 2.0 0.00 0.00 0.00 91 1013.9
20260509113514 60 0 0.0 2.0 0.00 0.00 0.00 90 1013.8
20260509113030 61 0 0.0 2.0 0.00 0.00 0.00 90 1013.9
20260509112517 61 0 0.0 0.0 0.00 0.00 0.00 90 1013.9
20260509112016 61 0 0.0 1.0 0.00 0.00 0.00 90 1013.9
20260509111534 61 0 0.0 1.0 0.00 0.00 0.00 90 1013.8
20260509111016 61 173 0.0 1.0 0.00 0.00 0.00 90 1013.9
20260509110517 61 0 0.0 0.0 0.00 0.00 0.00 90 1013.9
20260509110033 61 0 0.0 0.0 0.00 0.00 0.00 90 1013.9
20260509105515 61 0 0.0 0.0 0.00 0.00 0.00 90 1013.9
20260509105015 61 0 0.0 0.0 0.00 0.00 0.00 90 1014.0
20260509104532 61 0 0.0 0.0 0.00 0.00 0.00 90 1014.0
20260509104015 61 0 0.0 1.0 0.00 0.00 0.00 90 1014.0
20260509103516 61 0 0.0 1.0 0.00 0.00 0.00 90 1014.0
20260509103036 61 0 0.0 0.0 0.00 0.00 0.00 90 1014.0
20260509102515 61 0 0.0 0.0 0.00 0.00 0.00 90 1014.1
20260509102015 61 0 0.0 0.0 0.00 0.00 0.00 90 1014.1
20260509101533 61 0 0.0 0.0 0.00 0.00 0.00 90 1014.1
20260509101016 61 0 0.0 0.0 0.00 0.00 0.00 90 1014.0
20260509100515 61 0 0.0 0.0 0.00 0.00 0.00 90 1014.0
20260509100033 61 0 0.0 0.0 0.00 0.00 0.00 90 1014.2
20260509095516 61 0 0.0 2.0 0.00 0.00 0.00 90 1014.2
20260509095015 61 0 0.0 2.0 0.00 0.00 0.00 90 1014.3
20260509094532 61 0 0.0 2.0 0.00 0.00 0.00 90 1014.3
20260509094016 61 142 1.0 3.0 0.00 0.00 0.00 90 1014.4
20260509093516 61 0 1.0 3.0 0.00 0.00 0.00 90 1014.3
20260509093035 61 0 0.0 3.0 0.00 0.00 0.00 90 1014.3
20260509092516 61 123 0.0 3.0 0.00 0.00 0.00 90 1014.3
20260509092015 61 0 0.0 3.0 0.00 0.00 0.00 90 1014.3
20260509091537 61 0 0.0 3.0 0.00 0.00 0.00 90 1014.4
20260509091016 61 0 0.0 3.0 0.00 0.00 0.00 90 1014.3
20260509090515 61 120 0.0 2.0 0.00 0.00 0.00 90 1014.4
20260509090036 61 120 0.0 2.0 0.00 0.00 0.00 90 1014.5
20260509085514 61 0 0.0 2.0 0.00 0.00 0.00 90 1014.7
20260509085014 61 120 0.0 3.0 0.00 0.00 0.00 90 1014.6
20260509084538 61 120 1.0 3.0 0.00 0.00 0.00 90 1014.7
20260509084018 61 0 0.0 2.0 0.00 0.00 0.00 90 1014.7
20260509083516 61 113 0.0 3.0 0.00 0.00 0.00 90 1014.8
20260509083045 61 0 0.0 3.0 0.00 0.00 0.00 90 1014.7
20260509082515 61 137 0.0 3.0 0.00 0.00 0.00 90 1014.7
20260509082015 61 0 0.0 2.0 0.00 0.00 0.00 90 1014.8
20260509081539 61 0 0.0 2.0 0.00 0.00 0.00 90 1014.9
20260509081015 61 34 0.0 1.0 0.00 0.00 0.00 90 1015.0
20260509080516 61 0 0.0 0.0 0.00 0.00 0.00 90 1014.9
20260509080034 61 0 0.0 0.0 0.00 0.00 0.00 90 1014.9
20260509075521 61 0 0.0 1.0 0.00 0.00 0.00 90 1015.0
20260509075021 61 0 0.0 2.0 0.00 0.00 0.00 90 1014.9
20260509074536 61 0 0.0 2.0 0.00 0.00 0.00 90 1015.0
20260509074016 61 0 0.0 1.0 0.00 0.00 0.00 90 1015.0
20260509073515 61 0 0.0 1.0 0.00 0.00 0.00 90 1015.0
20260509073037 61 0 0.0 1.0 0.00 0.00 0.00 90 1015.0
20260509072517 61 0 0.0 2.0 0.00 0.00 0.00 90 1015.1
20260509072015 61 0 0.0 2.0 0.00 0.00 0.00 90 1015.1
20260509071534 61 0 0.0 2.0 0.00 0.00 0.00 90 1015.2
20260509071018 61 0 0.0 2.0 0.00 0.00 0.00 90 1015.2
20260509070517 61 0 0.0 2.0 0.00 0.00 0.00 90 1015.2
20260509070036 61 0 0.0 2.0 0.00 0.00 0.00 90 1015.2
20260509065518 61 0 0.0 1.0 0.00 0.00 0.00 90 1015.2
20260509065019 61 0 0.0 1.0 0.00 0.00 0.00 89 1015.4
20260509064535 61 127 0.0 2.0 0.00 0.00 0.00 89 1015.4
20260509064019 61 127 0.0 2.0 0.00 0.00 0.00 90 1015.4
20260509063522 61 0 0.0 2.0 0.00 0.00 0.00 89 1015.4
20260509063034 61 0 0.0 1.0 0.00 0.00 0.00 89 1015.3
20260509062521 61 0 0.0 1.0 0.00 0.00 0.00 89 1015.4
20260509062023 61 0 0.0 3.0 0.00 0.00 0.00 89 1015.3
20260509061539 61 0 0.0 4.0 0.00 0.00 0.00 89 1015.3
20260509061016 61 157 2.0 4.0 0.00 0.00 0.00 89 1015.2
20260509060515 61 0 0.0 2.0 0.00 0.00 0.00 89 1015.3
20260509060038 61 0 0.0 1.0 0.00 0.00 0.00 89 1015.4
20260509055516 61 0 0.0 1.0 0.00 0.00 0.00 88 1015.5
20260509055016 61 0 0.0 1.0 0.00 0.00 0.00 88 1015.4
20260509054538 61 0 0.0 1.0 0.00 0.00 0.00 89 1015.4
20260509054014 61 0 0.0 1.0 0.00 0.00 0.00 89 1015.5
20260509053516 61 0 0.0 1.0 0.00 0.00 0.00 89 1015.5
20260509053053 61 0 0.0 1.0 0.00 0.00 0.00 88 1015.5
20260509052516 61 0 0.0 2.0 0.00 0.00 0.00 89 1015.6
20260509052016 61 0 0.0 2.0 0.00 0.00 0.00 89 1015.6
20260509051531 61 0 0.0 2.0 0.00 0.00 0.00 89 1015.7
20260509051015 61 0 0.0 2.0 0.00 0.00 0.00 89 1015.7
20260509050513 61 0 0.0 2.0 0.00 0.00 0.00 89 1015.7
20260509050032 61 0 0.0 1.0 0.00 0.00 0.00 89 1015.7
20260509045517 61 0 0.0 1.0 0.00 0.00 0.00 89 1015.6
20260509045015 61 32 0.0 1.0 0.00 0.00 0.00 89 1015.6
20260509044535 61 0 0.0 2.0 0.00 0.00 0.00 89 1015.5
20260509044016 62 0 0.0 2.0 0.00 0.00 0.00 89 1015.5
20260509043516 62 352 0.0 2.0 0.00 0.00 0.00 89 1015.6
20260509043041 62 352 0.0 2.0 0.00 0.00 0.00 89 1015.5
20260509042516 62 57 0.0 1.0 0.00 0.00 0.00 89 1015.4
20260509042016 62 0 0.0 2.0 0.00 0.00 0.00 88 1015.4
20260509041545 62 0 0.0 2.0 0.00 0.00 0.00 88 1015.4
20260509041020 62 0 0.0 3.0 0.00 0.00 0.00 88 1015.4
20260509040516 62 268 1.0 3.0 0.00 0.00 0.00 88 1015.3
20260509040035 62 0 0.0 2.0 0.00 0.00 0.00 88 1015.3
20260509035516 62 15 0.0 2.0 0.00 0.00 0.00 88 1015.4
20260509035015 62 113 0.0 2.0 0.00 0.00 0.00 88 1015.2
20260509034539 61 338 0.0 2.0 0.00 0.00 0.00 88 1015.3
20260509034015 62 0 0.0 2.0 0.00 0.00 0.00 88 1015.1
20260509033516 62 18 0.0 2.0 0.00 0.00 0.00 88 1015.1
20260509033032 62 18 0.0 2.0 0.00 0.00 0.00 88 1015.1
20260509032516 62 0 0.0 1.0 0.00 0.00 0.00 88 1015.0
20260509032016 62 0 0.0 1.0 0.00 0.00 0.00 87 1015.0
20260509031537 62 0 0.0 1.0 0.00 0.00 0.00 87 1015.0
20260509031015 62 0 0.0 2.0 0.00 0.00 0.00 87 1015.0
20260509030517 62 0 0.0 2.0 0.00 0.00 0.00 87 1014.9
20260509030032 62 303 0.0 3.0 0.00 0.00 0.00 87 1014.9
20260509025517 62 0 0.0 3.0 0.00 0.00 0.00 87 1014.8
20260509025015 62 0 0.0 3.0 0.00 0.00 0.00 87 1014.8
20260509024535 62 148 0.0 3.0 0.00 0.00 0.00 86 1014.7
20260509024015 63 36 0.0 3.0 0.00 0.00 0.00 86 1014.7
20260509023514 63 81 0.0 3.0 0.00 0.00 0.00 86 1014.7
20260509023036 63 0 0.0 2.0 0.00 0.00 0.00 86 1014.6
20260509022518 63 0 0.0 2.0 0.00 0.00 0.00 86 1014.6
20260509022016 63 142 0.0 2.0 0.00 0.00 0.00 86 1014.6
20260509021533 63 0 0.0 3.0 0.00 0.00 0.00 86 1014.5
20260509021020 63 0 1.0 3.0 0.00 0.00 0.00 85 1014.6
20260509020515 63 159 0.0 2.0 0.00 0.00 0.00 85 1014.5
20260509020101 63 0 0.0 4.0 0.00 0.00 0.00 85 1014.5
20260509015517 63 254 0.0 4.0 0.00 0.00 0.00 85 1014.4
20260509015016 63 0 1.0 4.0 0.00 0.00 0.00 84 1014.4
20260509014532 64 339 0.0 3.0 0.00 0.00 0.00 85 1014.3
20260509014018 64 0 0.0 3.0 0.00 0.00 0.00 84 1014.2
20260509013515 64 0 0.0 2.0 0.00 0.00 0.00 84 1014.3
20260509013045 64 334 0.0 3.0 0.00 0.00 0.00 84 1014.4
20260509012517 64 351 0.0 3.0 0.00 0.00 0.00 84 1014.6
20260509012015 64 333 1.0 3.0 0.00 0.00 0.00 84 1014.5
20260509011535 63 0 1.0 4.0 0.00 0.00 0.00 84 1014.4
20260509011013 64 31 0.0 4.0 0.00 0.00 0.00 84 1014.4
20260509010515 64 342 0.0 3.0 0.00 0.00 0.00 84 1014.3
20260509010047 64 214 1.0 3.0 0.00 0.00 0.00 83 1014.4
20260509005517 65 155 0.0 3.0 0.00 0.00 0.00 83 1014.4
20260509005020 65 97 0.0 3.0 0.00 0.00 0.00 83 1014.3
20260509004531 65 0 1.0 3.0 0.00 0.00 0.00 83 1014.3
20260509004014 65 0 0.0 3.0 0.00 0.00 0.00 82 1014.1
20260509003515 66 0 0.0 3.0 0.00 0.00 0.00 82 1014.1
20260509003033 65 5 0.0 5.0 0.00 0.00 0.00 82 1014.1
20260509002516 65 304 1.0 5.0 0.00 0.00 0.00 83 1014.1
20260509002017 65 71 0.0 6.0 0.00 0.00 0.00 82 1014.2
20260509001532 66 19 0.0 7.0 0.00 0.00 0.00 81 1014.3
20260509001017 66 0 1.0 7.0 0.00 0.00 0.00 81 1014.3
20260509000516 66 35 0.0 4.0 0.00 0.00 0.00 81 1014.5
20260509000032 66 9 1.0 3.0 0.00 0.00 0.00 80 1014.5
20260508235517 66 0 0.0 4.0 0.00 0.00 0.00 81 1014.5
20260508235015 66 126 1.0 4.0 0.00 0.00 0.00 80 1014.5
20260508234535 67 324 1.0 7.0 0.00 0.00 0.00 80 1014.6
20260508234017 67 315 1.0 7.0 0.00 0.00 0.00 79 1014.5
20260508233516 68 140 2.0 7.0 0.00 0.00 0.00 78 1014.6
20260508233034 67 92 1.0 5.0 0.00 0.00 0.00 78 1014.6
20260508232516 68 12 1.0 8.0 0.00 0.00 0.00 75 1014.6
20260508232015 69 40 2.0 8.0 0.00 0.00 0.00 76 1014.7
20260508231531 69 287 0.0 6.0 0.00 0.00 0.00 77 1014.9
20260508231015 69 103 1.0 5.0 0.00 0.00 0.00 76 1014.8
20260508230516 68 242 2.0 5.0 0.00 0.00 0.00 76 1014.9
20260508230043 69 234 1.0 5.0 0.00 0.00 0.00 74 1014.9
20260508225515 69 334 1.0 5.0 0.00 0.00 0.00 74 1015.0
20260508225015 69 36 1.0 5.0 0.00 0.00 0.00 76 1015.0
20260508224538 69 117 1.0 5.0 0.00 0.00 0.00 74 1015.1
20260508224014 69 58 1.0 5.0 0.00 0.00 0.00 75 1015.0
20260508223514 69 347 1.0 5.0 0.00 0.00 0.00 76 1015.0
20260508223036 69 82 1.0 6.0 0.00 0.00 0.00 75 1015.0
20260508222519 69 147 1.0 8.0 0.00 0.00 0.00 75 1015.1
20260508222016 69 250 2.0 8.0 0.00 0.00 0.00 74 1015.1
20260508221542 70 352 1.0 7.0 0.00 0.00 0.00 75 1015.3
20260508221016 70 49 3.0 7.0 0.00 0.00 0.00 75 1015.3
20260508220519 71 75 1.0 5.0 0.00 0.00 0.00 72 1015.3
20260508220033 71 26 1.0 7.0 0.00 0.00 0.00 73 1015.4
20260508215517 70 352 2.0 8.0 0.00 0.00 0.00 73 1015.3